Regional Weather Roundup
Issued by NWS Columbia, SC

Home | Current Version | Previous Version | Text Only | Print | Product List | Glossary On
Versions: 1 2 3 4 5 6 7 8 9 10 11 12 13 14 15 16 17 18 19 20 21 22 23 24 25 26 27
000
ASUS42 KCAE 270110
RWRCAE
REGIONAL WEATHER ROUNDUP
NATIONAL WEATHER SERVICE COLUMBIA SC
900 PM EDT THU APR 26 2018

NOTE: "FAIR" INDICATES FEW OR NO CLOUDS BELOW 12,000 FEET WITH NO
SIGNIFICANT WEATHER AND/OR OBSTRUCTIONS TO VISIBILITY.

NOT ALL STATIONS ARE QUALITY CONTROLLED BY THE NATIONAL
WEATHER SERVICE. USE DATA WITH CAUTION...ESPECIALLY
DEWPOINT OBSERVATIONS.

SCZ001>056-GAZ040-063>065-077-270200-
...UPSTATE SOUTH CAROLINA...

CITY           SKY/WX    TMP DP  RH WIND       PRES   REMARKS
ANDERSON       CLOUDY    58  56  93 N5        29.82R
LIBERTY        CLOUDY    57  57 100 CALM      29.82R
SPARTANBURG    MOCLDY    57  55  94 CALM      29.82S
CLEMSON        CLOUDY    57  56  96 N3        29.84R
GREENVILLE     CLOUDY    59  58  96 CALM      29.84R
GREENWOOD      FAIR      55  55 100 CALM      29.83R
GREER          CLOUDY    58  57  97 CALM      29.84R
ROCK HILL      LGT RAIN  58  57  97 SE7       29.82F
CHESTER        LGT RAIN  57  57 100 S3        29.83F
LAURENS        FAIR      55  54  94 S3        29.82R


...CENTRAL SOUTH CAROLINA...

CITY           SKY/WX    TMP DP  RH WIND       PRES   REMARKS
COLUMBIA APT   LGT RAIN  66  55  67 N7        29.84S
COLUMBIA OWENS MOCLDY    67  53  61 VRB7      29.86R
MCENTIRE ANGB  MOCLDY    66  56  69 NW13      29.85R
ORANGEBURG     FAIR      66  55  67 NW5       29.83S
SUMTER SHAW    CLOUDY    68  55  64 NW13G20   29.82R
NEWBERRY       FAIR      59  57  94 CALM      29.85R
AIKEN          RAIN      57  55  94 E5        29.87F
BARNWELL       DRIZZLE   64  57  77 W6        29.85R
MANNING        FAIR      61  54  77 CALM      29.83S
CAMDEN         CLOUDY    64  57  77 NW13      29.86R
LANCASTER      LGT RAIN  59  59 100 CALM      29.87R
WINNSBORO      RAIN      59  54  82 CALM      29.83F


...EASTERN AND COASTAL SOUTH CAROLINA...

CITY           SKY/WX    TMP DP  RH WIND       PRES   REMARKS
MYRTLE BEACH   FAIR      66  60  81 S9        29.85R
N MYRTLE BCH   FAIR      66  60  81 S12       29.83S
CONWAY         FAIR      61  61 100 CALM      29.84R
MARION         FAIR      66  59  77 S5        29.83R
HARTSVILLE     MOCLDY    64  57  77 CALM      29.83R
FLORENCE       FAIR      70  58  65 SW3       29.82R
DARLINGTON     FAIR      67  59  75 SW6       29.83R
CHARLESTON APT FAIR      66  58  75 S6        29.84R
MOUNT PLEASANT FAIR      64  61  88 S3        29.85S
WALTERBORO     FAIR      66  59  77 CALM      29.84S
BEAUFORT       FAIR      69  65  86 S3        29.83


...EASTERN GEORGIA...

CITY           SKY/WX    TMP DP  RH WIND       PRES   REMARKS
AUGUSTA BUSH F LGT RAIN  62  60  93 E6        29.83F
AUGUSTA DANIEL LGT RAIN  62  57  83 SE8       29.82F
THOMSON        MOCLDY    58  55  92 S3        29.87S
WASHINGTON     FAIR      55  54  94 SE5       29.82R
CLAXTON        CLOUDY    70  64  81 CALM      29.80R
SYLVANIA       CLOUDY    67  58  72 NE6       29.82S
STATESBORO     CLOUDY    69  53  54 N3        29.82R
SAVANNAH       MOCLDY    69  61  75 S12       29.82R


...SOUTHERN NORTH CAROLINA...

CITY           SKY/WX    TMP DP  RH WIND       PRES   REMARKS
CHARLOTTE      LGT RAIN  59  57  93 NW6       29.85S
MONROE         LGT RAIN  59  58  96 CALM      29.84S
WADESBORO      CLOUDY    64  59  86 W8G16     29.84R
ROCKINGHAM     FAIR      68  61  79 SW5       29.82R
RUTHERFORDTON  CLOUDY    55  55 100 CALM      29.84S
ASHEVILLE      CLOUDY    54  52  93 CALM      29.85R

$$




USA.gov is the U.S. government's official web portal to all federal, state and local government web resources and services.